Location: Jefferson Observatory
(34.1602°N, 83.6058°W)
Time: 14:22:03
(UTC-05:00)

Tiangong 2 - Visible Passes

Search period start: 17 November 2017 00:00
Search period end: 27 November 2017 00:00
Orbit: 386 x 391 km, 42.8° (Epoch: 17 November)

Date Brightness Start Highest point End Pass type
(mag) Time Alt. Az. Time Alt. Az. Time Alt. Az.
24 Nov 3.4 06:37:58 10° SSW 06:40:42 26° SE 06:43:27 10° E visible
25 Nov 4.1 05:40:57 10° S 05:42:41 14° SE 05:44:25 10° ESE visible
26 Nov 1.7 06:17:53 10° SW 06:21:00 58° SSE 06:24:10 10° ENE visible
